Погода в Александрийской

Россия / Ставропольский край     44°13′35″N   43°20′30″E
темп.,
°C
ветер,
м/с
пор.,
м/с
влажн.,
%
обл.,
%
осадки,
мм/ч
давл.,
гПа
погр.,
м
22 апреля, чт
чт2200:00+11вюв227598 0.0 102196
03:00+11вюв2278100 0.0 102187
06:00+10в2483100 0.4 1021168
09:00+10всв3684100 0.6 1023414
12:00+12в457399 0.0 1023669
15:00+14в556194 0.0 10221107
18:00+12вюв4673100 0.0 1022705
21:00+10вюв3685100 0.0 1022352
23 апреля, пт
пт2300:00+9з1195100 5.1 102399
03:00+9зсз2595100 7.7 1023329
06:00+10зсз5989100 0.4 1024595
09:00+13зсз566429 0.4 1024922
12:00+16сз34445 0.0 10231763
15:00+18сз34389 0.0 10212089
18:00+16с22525 0.0 102153
21:00+12в2363100 0.0 102148
24 апреля, сб
сб2400:00+10в2271100 0.0 101934
03:00+10юв1173100 0.0 101916
06:00+11сз1174100 0.0 102025
09:00+15зюз015936 0.0 1019561
12:00+18с1150100 0.0 10181486
15:00+19ссв1245100 0.0 10181716
18:00+16ссз3560100 0.0 1018162
21:00+15ссз1162100 0.0 102014
25 апреля, вс
вс2500:00+14сз2367100 0.0 102092
03:00+12с3586100 0.4 1021351
06:00+11ссв3489100 0.1 1021311
09:00+11всв4587100 0.3 1020566
12:00+13в5680100 0.3 1019937
15:00+14всв4778100 0.4 1016860
18:00+12св5887100 0.1 1017514
21:00+9ссв2480100 0.1 1018345
26 апреля, пн
пн2600:00+8св1282100 0.0 1017296
03:00+8с2387100 0.0 1016203
06:00+8с1291100 0.1 1017210
09:00+10всв1179100 0.2 1016587
12:00+12с2176100 0.0 1015649
15:00+13ссз2272100 0.1 1015778
18:00+12с2479100 0.1 1015197
21:00+10ссв2495100 1.0 1016265